SCP
3 2 2 2 2 2 2 2 2 2 2 2 2 2 2 2 2 2 1 1 1 1 1 1 1 1 1 1 1 0 0 0 0 0 0 0 0 0 0 0 0 0 0
2 2 2 2 2 2 2 2 2 2 2 2 2 2 2 2 2 2 1 1 1 1 1 1 1 1 1 1 1 0 0 0 0 0 0 0 0 0 0 0 0 0 0
2 2 2 2 2 2 2 2 2 2 2 2 2 2 1 1 1 1 1 1 1 1 1 1 1 1 1 1 1 1 0 0 0 0 0 0 0 0 0 0 0 0 0
2 2 2 2 2 2 2 2 2 2 2 2 2 1 1 1 1 1 1 1 1 1 1 1 1 1 1 1 1 1 1 0 0 0 0 0 0 0 0 0 0 0 0
2 2 2 2 2 2 2 2 2 2 2 2 1 1 1 1 1 1 1 1 1 1 0 1 1 1 1 1 1 1 1 1 0 0 0 0 0 0 0 0 0 0 0
2 2 2 2 2 2 2 2 2 2 2 1 1 1 1 1 1 1 1 1 1 1 1 1 1 1 1 1 1 1 1 1 1 0 0 0 0 0 0 0 0 0 0
1 1 1 1 2 2 2 1 1 1 1 1 1 1 0 0 0 0 1 1 1 1 1 1 1 1 1 1 1 1 1 1 1 1 1 0 0 0 0 0 0 0 0
0 0 0 1 1 1 1 1 1 1 0 0 1 1 0 0 0 0 1 1 1 1 1 1 1 1 1 1 1 1 1 1 1 1 1 1 0 0 0 0 0 0 0
0 0 0 0 0 1 1 1 1 1 0 0 1 1 0 0 0 0 1 1 1 1 1 1 1 1 1 1 1 1 1 1 1 1 1 1 0 0 0 0 0 0 0
0 0 0 0 0 1 1 1 1 1 1 1 1 1 0 0 0 1 1 1 1 1 0 0 1 1 1 1 1 1 1 1 1 1 1 1 1 1 0 0 0 0 0
0 0 0 1 1 1 1 1 1 1 1 1 1 1 0 0 0 1 1 0 0 0 0 0 0 0 0 1 1 1 1 1 1 1 1 1 1 1 1 0 0 0 0
0 0 0 0 1 1 1 1 1 1 1 1 1 1 0 0 0 0 0 0 0 1 0 0 0 0 0 0 1 1 1 1 1 1 1 1 1 1 1 1 0 0 0
0 0 0 0 0 0 1 1 1 1 1 1 0 0 0 0 0 0 0 0 1 1 1 0 0 0 0 0 0 1 1 1 1 1 1 1 1 1 1 1 0 0 0
0 0 0 0 0 0 0 0 0 1 1 1 1 0 0 0 0 0 1 1 1 1 1 1 0 0 0 0 0 0 1 1 0 0 0 0 0 1 1 0 0 0 0
0 0 0 0 0 0 0 0 0 0 1 1 1 1 0 0 0 1 1 1 1 1 0 0 0 0 0 0 0 0 1 1 0 0 0 0 0 0 0 0 0 0 0
0 0 0 0 0 0 0 0 0 0 0 1 1 1 1 1 1 1 1 1 0 0 0 0 0 0 0 0 0 0 1 1 0 0 0 0 0 0 0 0 0 0 0
0 0 0 0 0 0 0 0 0 0 0 1 1 1 1 1 1 1 0 0 0 0 0 0 0 0 0 0 0 0 1 1 1 0 0 0 0 0 0 0 0 0 0
0 0 0 0 0 0 0 0 0 0 0 1 1 1 1 0 0 0 0 0 0 0 0 0 0 0 0 0 0 1 1 1 1 0 0 0 0 0 0 0 0 0 0
0 0 0 0 0 0 0 0 0 0 0 0 0 0 0 0 0 0 0 0 0 0 0 0 0 0 0 0 0 1 1 1 1 0 0 0 0 0 0 0 0 0 0
0 0 0 0 0 0 0 0 0 0 0 0 0 0 0 0 0 0 0 0 0 0 0 0 0 0 0 0 0 1 1 1 1 0 0 0 0 0 0 0 0 0 0
0 0 0 0 0 0 0 0 0 0 0 0 0 0 0 0 0 0 0 0 0 0 0 0 0 0 0 0 0 0 1 1 0 0 0 0 0 0 0 0 0 0 0
0 0 0 0 0 0 0 0 0 0 0 0 0 0 0 0 0 0 0 0 0 0 0 0 0 0 0 0 0 0 0 0 0 0 0 0 0 0 0 0 0 0 0
0 0 0 0 0 0 0 0 0 0 0 0 0 0 0 0 0 0 0 0 0 0 0 0 0 0 0 0 0 0 0 0 0 0 0 0 0 0 0 0 0 0 0
0 0 0 0 0 0 0 0 0 0 0 0 0 0 0 0 0 0 0 0 0 0 0 0 0 0 0 0 0 0 0 0 0 0 0 0 0 0 0 0 0 0 0
0 0 0 0 0 0 0 0 0 0 0 0 0 0 0 0 0 0 0 0 0 0 0 0 0 0 0 0 0 0 0 0 0 0 0 0 0 0 0 0 0 0 0
0 0 0 0 0 0 0 0 0 0 0 0 0 0 0 0 0 0 0 0 0 0 0 0 0 0 0 0 0 0 0 0 0 0 0 0 0 0 0 0 0 0 0
Wind_Speed
2 1 1 0 0 0 1 1 1 1 1 1 1 1 1 1 1 1 2 3 3 4 4 4 5 5 5 5 5 4 4 4 3 3 2 3 3 4 3 3 4 4 3
3 2 1 0 1 0 1 1 1 1 1 1 1 2 2 2 2 2 2 3 3 4 4 4 4 5 5 6 6 5 4 3 4 3 3 3 4 4 4 4 4 4 3
3 3 2 1 0 1 2 1 2 2 1 1 1 0 1 1 2 2 2 3 3 4 4 5 5 5 6 6 6 6 7 5 5 4 4 3 4 2 3 5 5 5 4
3 3 2 1 1 1 2 2 2 1 1 1 1 1 2 2 3 3 3 3 4 4 4 5 6 6 5 6 7 7 6 6 5 5 5 4 2 3 2 3 4 5 5
2 2 2 2 1 1 1 2 2 1 1 1 1 3 3 3 3 3 4 4 4 4 5 5 5 6 6 7 8 8 8 6 7 5 4 5 3 4 4 4 3 4 5
2 2 2 1 1 1 1 2 2 2 1 1 2 3 3 4 4 4 4 4 3 4 5 5 5 5 5 7 7 8 9 8 8 7 6 5 5 5 5 5 4 4 3
2 2 1 1 2 2 2 2 2 2 2 2 3 3 4 5 5 5 5 5 4 4 5 5 5 5 5 6 7 7 8 9 9 8 6 6 6 5 5 5 4 4 3
2 2 2 2 2 3 3 3 3 3 3 3 4 4 4 4 4 5 5 5 5 5 5 6 6 6 6 6 6 6 7 8 8 9 8 6 6 5 5 5 4 4 4
2 3 3 3 3 3 3 3 3 4 4 4 5 5 4 4 5 5 5 5 5 5 6 6 6 7 7 6 6 6 7 7 8 8 8 7 6 5 5 5 5 5 5
2 3 3 3 3 3 3 3 4 4 5 5 4 4 5 5 5 5 6 6 6 6 6 6 6 7 7 6 6 5 6 7 7 6 8 8 6 5 5 5 5 5 5
4 4 4 4 3 3 3 3 4 4 4 5 5 5 5 5 5 5 6 6 6 6 6 6 7 7 7 7 7 7 7 8 8 7 8 9 8 6 5 5 4 5 4
4 4 4 4 4 3 3 3 4 5 5 5 5 5 5 5 5 6 6 6 7 7 7 7 7 8 7 8 8 8 8 8 8 8 8 8 7 8 6 5 6 5 5
5 4 4 4 4 4 4 4 5 5 5 5 5 5 5 5 6 6 6 6 6 7 7 7 7 8 8 8 8 8 8 8 8 8 8 8 8 9 6 6 6 5 4
5 5 4 4 4 5 4 4 5 5 5 5 5 5 6 6 6 6 6 6 6 6 6 7 7 8 8 8 7 7 7 7 6 7 7 8 8 8 8 6 6 5 4
5 6 6 6 5 5 5 5 6 6 6 5 5 6 6 6 6 6 6 6 6 6 6 6 7 6 6 6 7 6 6 6 6 6 6 6 6 7 7 5 6 5 4
6 6 6 6 6 6 6 6 7 6 6 6 6 6 6 5 5 5 5 5 5 6 5 6 5 6 5 6 7 5 5 5 6 5 5 5 6 6 7 7 7 6 6
7 7 6 6 6 7 7 7 7 7 6 6 6 6 5 5 5 5 5 5 5 5 5 5 5 5 5 5 4 4 3 4 5 5 4 3 4 4 5 6 7 7 7
6 6 6 7 7 7 7 7 7 6 6 6 6 6 6 5 5 5 5 5 4 4 4 4 4 4 4 3 2 3 4 4 4 4 5 4 4 4 4 4 4 4 4
6 6 6 6 6 6 6 7 7 6 6 6 6 6 6 6 6 5 5 4 4 5 4 4 4 4 3 2 2 1 2 2 2 3 3 4 4 5 4 3 4 3 2
5 5 5 6 6 6 6 6 6 6 6 6 6 6 6 6 6 5 5 4 4 4 4 3 3 3 2 2 1 1 2 2 1 1 2 3 3 4 5 3 4 4 3
5 5 5 5 6 6 6 6 6 6 6 6 6 6 5 5 5 5 4 3 2 2 3 2 2 2 2 1 1 1 1 1 2 1 1 2 3 4 4 3 2 3 2
5 5 5 5 5 5 6 7 7 7 6 5 5 5 5 4 4 3 3 2 1 1 1 1 1 1 1 1 0 0 1 1 1 1 1 2 3 3 3 3 4 5 4
5 4 5 6 6 5 5 7 7 6 5 5 5 4 4 4 3 2 2 1 1 1 1 1 1 1 1 1 1 1 1 1 0 1 2 2 4 3 3 4 5 4 2
5 4 5 6 6 6 6 6 6 6 5 5 4 4 3 3 2 2 2 1 1 1 1 1 1 1 0 0 0 0 1 2 2 2 3 5 5 4 4 4 3 2 2
4 4 5 5 6 6 6 6 6 5 5 4 4 3 3 2 2 2 1 1 1 1 1 1 1 1 1 0 1 1 1 1 2 3 3 2 2 2 2 2 2 2 1
4 4 5 6 6 6 6 6 5 5 4 3 3 2 2 2 2 1 1 2 1 1 1 1 1 0 1 2 2 3 4 5 5 4 3 2 2 1 2 2 2 1 1
Wind_Direction
197 194 204 310 114 16 315 225 251 252 205 210 205 216 227 238 237 240 242 233 229 225 221 221 212 209 211 212 211 208 216 210 192 193 215 232 239 239 229 233 227 218 221
191 176 179 142 56 356 320 308 268 233 208 229 225 230 248 251 248 247 247 246 233 228 224 221 218 212 210 211 211 205 216 209 203 211 206 222 221 224 241 232 233 235 223
199 188 196 205 46 336 298 291 305 257 223 228 213 250 270 265 256 247 249 251 246 238 232 225 223 219 215 213 213 209 213 213 212 218 219 219 226 222 211 232 233 232 236
199 186 198 219 280 296 294 305 302 277 239 215 225 228 235 254 263 264 259 257 247 239 241 235 228 222 223 220 219 217 223 215 211 214 234 253 257 227 217 214 230 236 239
206 199 206 213 274 296 297 309 297 288 276 244 253 250 256 266 269 268 263 264 254 242 239 242 237 230 230 227 224 220 223 223 218 210 211 223 234 247 244 241 230 231 235
209 220 226 222 309 290 291 312 292 289 297 267 260 263 269 275 271 267 266 265 262 248 241 241 240 238 236 231 229 226 225 225 223 219 213 211 211 215 227 240 238 244 239
215 221 235 278 294 296 293 296 286 291 308 294 274 268 267 267 263 263 261 263 259 255 245 244 243 240 239 238 232 230 232 227 223 221 221 223 225 227 227 234 244 254 255
222 223 237 248 270 286 289 281 277 292 296 286 277 268 268 265 264 263 263 262 261 260 260 251 248 245 242 240 237 232 232 231 225 224 223 226 225 222 223 228 232 248 253
250 251 261 265 271 277 278 278 279 287 288 283 279 274 265 266 268 267 264 265 268 268 262 258 252 249 244 241 238 236 231 229 223 221 221 223 225 223 225 225 222 231 250
322 289 279 275 277 281 281 283 280 278 282 280 275 277 274 267 268 268 265 267 268 268 266 262 257 254 248 242 239 241 236 227 224 222 219 222 221 221 221 222 227 232 242
328 321 311 298 280 275 283 294 298 295 284 277 275 275 275 272 268 263 265 268 265 261 258 261 258 254 247 241 237 237 237 230 224 224 223 221 216 216 214 217 224 230 233
317 321 323 316 300 286 297 303 298 299 295 283 276 275 276 273 270 268 266 266 265 263 259 257 257 255 249 244 238 238 239 232 227 223 223 221 214 214 210 211 220 227 233
321 322 323 315 310 306 300 296 296 299 299 292 283 280 277 275 272 272 272 268 266 266 264 259 256 254 250 248 244 241 240 236 230 223 221 221 216 213 209 210 214 220 226
319 320 320 316 314 308 300 300 304 303 300 299 291 282 280 276 273 273 273 269 266 265 266 267 262 257 251 246 244 242 239 236 233 228 224 223 221 216 209 210 210 210 215
317 318 318 315 311 306 305 306 307 306 304 301 295 286 283 278 273 272 271 271 267 265 264 264 267 264 256 247 246 239 232 229 228 225 224 226 224 227 216 211 209 205 208
306 309 311 311 310 308 308 307 305 305 302 297 293 293 287 283 279 278 275 271 268 265 263 262 264 269 267 265 253 242 228 222 220 222 222 221 215 216 212 210 211 210 209
300 304 306 305 307 307 306 303 302 302 296 292 291 292 289 285 282 280 275 271 268 267 266 268 271 272 276 278 248 237 234 222 218 219 213 215 209 210 211 204 206 209 214
295 299 304 306 308 308 306 303 301 296 290 288 290 293 290 284 280 276 272 273 271 267 264 266 268 268 267 277 261 233 226 220 215 213 211 207 208 205 207 205 210 216 224
287 292 299 302 304 304 304 302 300 297 292 289 290 290 286 282 280 274 275 273 273 271 265 262 261 261 263 271 273 230 212 211 212 211 207 205 204 191 187 196 199 199 203
290 296 301 302 302 305 305 298 297 296 292 292 292 289 285 277 275 273 270 268 265 267 273 270 261 260 264 257 249 201 196 188 195 195 198 195 190 184 181 190 191 191 187
292 298 298 297 301 305 301 295 296 296 295 295 295 292 288 282 278 275 269 267 268 274 278 280 277 271 265 239 193 195 198 174 175 179 193 181 168 174 174 183 190 180 159
292 295 295 298 303 304 300 297 299 302 302 296 296 295 293 290 284 279 280 281 274 260 275 289 302 305 279 264 207 129 183 150 176 179 173 155 157 165 152 148 135 129 127
289 292 293 298 304 306 300 296 302 309 307 301 298 299 296 292 291 283 274 265 259 246 243 256 262 294 331 8 42 70 119 106 115 118 124 126 132 130 125 120 116 116 115
286 290 294 298 303 308 302 297 305 308 303 302 306 307 303 307 308 294 281 258 232 228 232 240 247 258 283 319 59 78 114 114 103 102 110 107 102 98 98 102 99 97 109
284 285 287 291 299 306 305 307 307 304 299 302 307 309 310 306 304 305 308 275 256 256 253 249 241 224 226 248 53 88 101 103 113 105 98 91 93 101 95 81 73 77 98
285 287 289 293 300 305 305 307 306 301 297 304 306 306 306 303 304 313 340 15 18 15 343 351 335 326 43 87 97 89 94 98 115 115 118 117 121 120 114 106 89 80 80